Theta_e
307 308 307 306 306 306 306 306 306 305 306 305 306 306 307 307 306 306 306 306 307 306 306 306 307 307 309 311 311 313 316 316 316 317 317 317 316 313 311 310 310 310 310
307 306 305 305 305 305 306 305 305 306 306 306 307 307 306 306 306 306 306 305 305 306 307 308 308 308 309 310 310 312 315 314 316 317 314 313 313 311 310 308 308 308 308
305 305 304 305 306 306 306 306 306 307 307 306 307 307 306 306 306 306 305 305 306 306 307 307 307 307 308 309 309 310 313 314 313 315 314 313 310 311 310 308 308 307 307
305 305 306 306 307 307 306 306 306 306 306 307 307 307 307 305 306 306 305 304 306 306 306 306 306 306 306 307 308 309 310 313 313 314 314 312 311 309 309 307 307 307 307
306 306 306 306 307 306 306 306 306 306 306 306 307 308 307 305 305 306 305 304 305 305 306 306 306 306 306 306 307 307 308 310 312 314 313 312 310 309 309 308 307 307 306
306 306 306 306 306 306 306 307 306 307 306 307 307 307 307 305 305 306 306 305 304 304 305 304 303 303 303 306 306 307 308 308 312 313 314 312 311 310 310 308 308 307 305
306 305 306 306 306 306 306 307 307 307 307 308 306 306 306 304 305 305 306 307 305 304 304 303 303 303 303 303 306 307 308 309 310 312 313 313 311 311 310 309 309 307 307
306 305 306 306 306 306 307 307 306 306 307 307 306 305 305 304 304 304 306 307 306 305 304 303 302 302 302 302 304 308 308 310 310 313 312 312 311 310 310 309 309 308 307
306 305 306 306 305 305 306 306 306 306 306 307 306 304 304 304 303 304 305 305 305 305 304 302 302 302 302 302 304 307 308 310 311 312 311 310 310 310 309 308 308 308 307
306 305 305 306 305 305 305 305 305 306 305 305 306 306 304 304 303 304 303 304 305 304 303 302 301 302 303 304 306 308 309 309 310 309 310 310 310 310 310 309 309 308 309
305 305 304 306 305 305 305 303 302 305 304 304 304 303 304 304 303 303 303 303 303 303 302 302 302 303 304 305 306 307 307 308 308 309 309 310 310 310 310 310 309 309 309
304 305 305 305 305 305 304 303 302 303 302 301 302 302 301 302 302 302 302 302 302 302 301 301 302 303 304 305 306 307 308 308 308 309 310 309 308 308 308 308 308 309 309
303 304 304 305 305 304 304 302 302 301 301 301 301 301 301 300 301 301 301 301 302 302 301 302 302 303 304 305 306 307 308 309 309 309 309 308 308 308 308 310 309 309 309
304 304 304 305 305 304 303 302 302 301 301 301 301 302 301 300 300 300 301 301 302 301 302 303 303 304 305 306 307 308 309 309 309 309 307 308 307 308 309 309 310 309 308
304 304 304 304 304 303 302 301 301 300 300 301 301 301 300 300 299 300 300 300 301 302 302 302 304 305 306 306 307 307 308 307 308 308 307 307 308 309 309 308 308 306 305
304 304 304 303 302 301 301 301 301 301 301 301 300 299 299 298 299 300 300 301 301 302 303 304 304 305 306 306 306 306 307 308 308 308 308 308 309 308 305 303 303 304 304
304 303 303 302 302 301 301 300 300 300 301 301 300 300 299 300 299 300 301 302 303 304 304 304 305 305 305 306 306 307 307 308 308 308 307 306 306 304 302 301 302 303 303
304 303 302 301 301 300 300 299 300 302 302 302 301 301 301 301 300 301 302 303 303 303 304 304 305 305 305 306 306 307 307 307 307 307 307 306 305 302 299 299 300 300 301
302 301 301 300 300 300 300 301 302 303 303 303 303 303 303 302 303 303 302 302 303 304 304 305 305 306 306 307 308 308 309 308 307 308 307 302 300 302 301 301 300 299 299
301 301 301 302 301 301 302 303 303 304 304 304 304 304 305 305 305 305 305 304 304 305 306 306 306 307 308 309 309 310 310 309 308 307 303 304 306 306 306 306 306 306 305
303 303 303 303 303 303 303 304 305 305 305 304 304 305 306 307 307 307 306 306 306 307 307 308 308 308 309 310 310 310 310 308 306 304 306 307 307 307 307 307 307 307 308
304 305 304 305 305 304 304 304 305 305 305 306 306 306 307 307 307 307 307 308 308 308 309 309 309 309 309 309 308 306 305 302 305 306 306 306 307 307 308 308 309 309 308
305 305 305 304 304 305 305 304 304 305 305 306 307 307 308 308 308 308 308 308 309 309 310 310 311 311 310 309 308 307 306 307 307 307 308 308 308 309 309 309 309 309 308
304 304 304 304 306 306 306 306 305 304 303 304 308 308 307 308 308 308 308 309 310 310 310 310 310 310 307 306 306 307 307 308 308 308 308 308 308 309 308 308 308 308 309
304 304 304 304 306 306 306 306 306 306 304 304 305 305 305 305 307 306 306 307 307 307 307 307 308 308 308 308 309 309 309 309 309 309 309 309 309 308 307 307 307 306 306
304 304 303 304 304 305 306 306 307 307 305 304 304 305 305 306 306 306 306 306 307 307 308 308 308 308 309 309 308 308 308 308 308 308 308 308 308 307 307 306 305 304 301
Wind_Speed
19 19 23 27 24 17 14 10 13 16 17 16 10 14 16 16 18 21 17 16 15 13 15 13 11 12 9 9 9 7 4 4 7 6 14 10 13 15 15 14 14 13 11
14 18 22 21 18 13 12 13 13 15 16 15 11 15 15 14 16 17 18 18 16 13 13 9 9 8 8 9 8 6 5 4 4 5 19 17 14 14 16 18 17 15 14
15 17 16 15 15 16 15 14 13 15 15 13 12 13 14 15 13 14 20 19 15 8 12 11 12 11 9 8 8 8 6 3 4 2 20 19 19 16 18 17 17 16 16
14 15 15 16 17 17 15 14 15 15 13 13 11 11 12 15 12 12 14 18 16 13 11 11 13 14 13 13 9 8 5 4 4 4 21 23 21 18 16 20 18 14 16
14 16 16 15 17 18 16 16 16 15 13 11 10 11 10 14 13 10 10 12 12 12 14 14 14 16 14 12 12 9 6 3 2 1 17 24 23 20 17 16 16 14 15
16 16 16 18 19 20 16 15 14 13 13 11 10 10 11 13 10 9 6 7 8 9 11 12 13 13 14 12 13 11 6 3 3 5 8 20 21 16 13 14 12 9 11
16 15 18 18 17 20 14 14 14 14 12 9 12 10 12 12 10 9 9 5 4 7 11 16 16 15 13 10 10 11 6 2 6 7 10 13 20 14 14 13 10 10 11
14 15 18 17 17 17 13 14 14 13 11 9 12 12 12 11 11 11 8 0 5 4 13 17 20 17 12 8 9 9 5 3 8 6 8 5 14 15 13 12 13 11 9
13 14 14 17 16 15 12 10 11 13 11 10 9 9 9 10 11 11 9 4 2 2 12 19 19 15 7 5 7 7 5 7 10 9 9 18 21 18 16 14 11 7 9
11 13 13 14 17 12 12 13 12 10 11 9 6 6 7 9 8 8 8 7 1 8 14 16 13 12 11 8 7 7 14 19 20 21 23 24 19 14 10 9 7 3 6
14 12 12 12 11 11 13 16 12 6 7 7 8 9 5 4 7 8 6 5 6 8 9 12 12 13 11 10 11 14 19 22 27 28 25 20 14 12 9 9 5 1 0
15 10 9 12 13 13 15 14 11 8 10 10 10 13 11 10 6 5 7 6 6 7 9 10 10 11 12 13 13 14 19 23 26 26 21 15 12 10 10 8 6 5 8
8 6 7 9 12 12 12 14 15 11 11 15 15 14 17 14 7 4 3 6 6 9 11 11 11 10 12 15 16 19 22 21 20 18 15 12 13 14 12 9 12 17 18
10 9 8 8 9 10 14 14 16 14 15 18 18 17 11 14 12 11 7 7 5 9 10 14 14 14 15 17 18 19 18 17 16 13 12 15 14 13 14 16 17 19 23
13 10 10 9 9 11 12 14 15 17 17 17 17 17 11 14 12 10 8 8 8 10 15 16 16 18 21 21 19 18 15 13 13 15 15 14 14 16 17 15 18 22 27
10 10 9 10 10 10 11 10 12 12 13 14 17 17 13 15 13 13 13 13 15 18 19 18 18 19 21 20 19 17 15 16 15 14 17 18 20 20 23 25 25 23 24
10 9 11 12 10 11 13 12 15 12 12 13 16 24 23 18 17 19 19 21 22 21 22 21 21 20 19 17 16 16 16 16 16 18 20 23 25 26 25 21 19 20 20
8 9 11 11 10 11 13 13 16 15 16 17 19 22 20 20 22 22 22 23 24 22 22 20 20 17 17 18 17 18 19 21 20 23 24 24 25 25 24 24 22 21 18
14 19 21 23 21 18 17 16 17 17 19 20 20 20 21 22 23 23 24 25 23 21 21 21 20 20 18 17 17 20 22 22 22 23 27 28 27 26 26 25 24 23 21
21 18 19 21 21 21 19 20 21 21 21 21 21 21 20 23 26 26 26 26 27 26 25 22 20 20 21 23 24 25 25 25 27 29 29 28 27 25 23 22 19 17 15
29 26 24 27 25 21 22 23 22 21 21 20 18 20 23 24 26 27 28 29 27 25 24 25 26 26 25 25 25 26 26 27 28 29 28 25 22 18 16 15 13 10 8
27 31 29 26 25 27 26 24 21 19 19 19 19 19 22 24 28 29 27 26 25 26 26 26 31 33 32 30 29 27 27 28 27 24 19 17 17 17 17 17 13 14 14
26 27 29 28 31 30 31 36 36 29 28 28 28 28 28 29 28 27 26 24 23 23 25 28 28 27 26 26 26 26 25 24 20 18 16 16 17 17 16 14 14 13 12
23 25 23 23 22 30 32 30 31 35 34 33 32 33 31 29 28 27 25 24 24 24 23 21 22 23 25 26 25 22 20 17 15 13 14 13 11 11 13 15 15 12 9
23 22 21 17 22 21 20 24 26 23 27 31 30 32 30 31 31 30 30 30 30 30 29 26 24 22 21 19 18 16 15 14 12 11 11 10 10 11 11 11 12 11 10
18 18 19 18 14 18 22 22 20 22 26 26 24 23 25 27 28 28 27 27 27 26 25 24 23 21 19 18 16 14 13 12 12 11 11 10 9 9 10 11 12 12 12
Wind_Direction
318 320 323 324 326 328 336 345 342 348 352 357 7 354 351 342 340 346 349 351 344 333 327 322 315 324 330 321 333 319 310 267 268 244 166 187 159 144 132 125 123 113 104
326 326 332 334 338 345 352 349 347 354 358 354 6 353 4 355 354 3 13 360 347 352 353 4 356 345 331 332 331 336 332 298 335 194 156 151 152 137 129 123 112 101 90
355 360 14 27 18 2 355 354 352 349 350 352 355 353 358 358 3 15 21 10 11 5 14 20 9 9 360 352 340 332 346 333 313 153 163 164 148 138 125 115 100 90 68
30 29 11 10 9 2 358 357 353 353 353 355 350 347 357 0 2 8 23 21 26 32 32 27 32 19 13 6 347 327 324 322 322 292 187 164 161 140 125 123 118 90 71
23 13 12 11 11 9 6 5 3 4 1 351 350 343 351 356 358 16 31 29 22 27 31 30 22 21 17 5 349 338 314 309 1 276 187 165 159 149 139 137 122 101 83
18 12 19 18 13 4 355 359 358 357 359 2 357 356 352 349 353 1 338 17 13 3 8 2 358 352 359 360 357 344 345 266 177 206 189 177 172 162 148 153 127 102 85
16 24 12 12 9 5 11 9 7 4 3 7 4 6 5 3 359 351 329 321 345 354 3 354 347 342 338 345 345 341 335 330 179 189 186 196 176 164 157 149 113 89 89
18 27 21 6 5 9 12 10 8 9 13 20 14 13 356 2 3 357 4 329 342 331 351 352 341 337 335 338 344 349 346 0 170 169 149 200 167 150 141 122 124 116 108
30 20 6 2 3 3 8 9 14 22 20 22 33 5 10 12 12 11 16 352 7 333 347 348 346 346 357 354 7 6 36 119 136 147 133 138 142 142 137 132 126 112 112
7 359 1 352 359 5 4 3 7 13 12 4 355 353 345 344 6 11 16 15 9 347 345 354 13 27 31 47 37 85 111 112 125 131 131 134 131 129 142 145 120 68 113
349 343 349 350 351 353 354 359 353 324 318 348 341 326 325 313 327 345 360 14 7 341 349 13 37 39 47 62 82 106 117 129 131 128 127 122 124 126 133 149 164 226 264
341 334 332 353 344 342 345 352 355 338 341 343 350 6 352 300 340 333 341 11 17 4 12 46 57 44 56 71 93 115 123 122 124 121 125 113 106 117 125 124 113 103 105
344 4 357 350 346 349 354 8 10 19 30 26 23 14 21 25 23 5 10 39 47 39 52 57 73 56 73 87 105 116 114 110 122 123 114 107 106 105 100 97 108 109 104
18 7 9 351 342 345 353 1 7 23 29 24 22 19 22 24 35 58 63 67 49 35 67 93 85 77 89 103 113 116 111 113 116 122 115 110 103 99 103 104 106 109 111
11 14 20 9 358 346 351 357 7 11 18 18 18 10 23 17 40 38 62 74 68 74 98 100 96 88 94 96 101 102 102 99 97 99 100 101 99 99 104 108 114 117 116
10 24 19 3 4 12 8 10 10 15 25 31 24 28 36 57 65 75 77 79 91 104 104 101 97 91 94 92 90 88 87 90 90 89 93 95 102 105 108 111 110 110 108
17 25 6 359 19 23 22 19 20 52 46 47 50 63 69 39 72 81 84 97 104 105 102 98 95 92 91 92 94 92 92 95 97 99 102 103 106 107 107 110 109 108 109
38 3 6 27 27 25 30 52 66 66 66 66 69 67 58 64 80 87 91 102 105 100 98 96 93 92 93 91 88 88 93 99 97 99 101 103 109 109 106 102 99 102 104
49 62 64 54 59 70 68 73 77 75 74 79 80 73 80 81 87 90 89 97 102 97 92 91 89 89 86 85 88 95 101 97 99 107 109 111 107 106 101 96 96 98 101
67 61 65 67 70 69 75 78 80 80 80 81 84 77 76 84 84 85 88 90 90 90 90 88 84 83 88 93 96 98 96 95 103 114 113 108 105 98 91 87 86 87 87
74 62 67 79 72 74 78 82 84 83 80 82 90 75 79 83 85 87 89 88 87 85 83 85 86 85 87 90 93 96 101 104 110 108 106 101 95 86 77 66 56 51 55
78 73 75 66 73 76 79 81 82 81 79 81 85 83 90 88 88 86 88 87 86 90 89 88 91 90 88 89 92 95 98 103 109 108 102 90 72 57 46 43 61 88 85
85 68 68 76 80 79 80 77 74 78 82 87 87 89 94 96 90 87 86 86 86 86 95 98 92 91 91 94 95 98 102 101 99 92 79 66 60 59 65 63 61 71 78
81 78 78 66 87 84 81 80 75 74 77 82 88 90 90 91 92 92 91 93 92 95 98 89 86 89 97 95 95 94 92 88 78 68 63 61 68 87 77 73 71 76 79
79 76 72 87 81 75 68 69 77 78 85 90 86 91 91 96 97 93 91 91 90 90 89 88 86 85 84 83 80 77 73 69 72 75 72 75 73 68 60 44 42 62 74
80 70 82 89 82 81 85 81 84 91 87 90 93 93 92 96 97 97 96 96 95 92 89 84 80 79 78 78 74 71 67 62 67 68 67 57 52 55 39 37 35 37 47